weather.gov     
National Weather Service

Terminal Aerodrome Forecast
NWS Homepage
This page is being discontinued on March 12, 2014.
The same data is available at this site. Please update your bookmarks.
Thank you, and we apologize for the inconvenience.
Please send an email to SR-SRH.Webmaster@noaa.gov with any concerns.


Current Version
Previous Version:    01  02  03  04  05  06  07  08  09  10  11  12  13  14  15  16  17  18  19  20  21  22  23  24  25  26  27  28  29  30  
   31  32  33  34  35  36  37  38  39  40  41  42  43  44  45  46  47  48  49  50  51  52  53  54  55  
[Printable]
364
FTUS41 KBGM 011100
TAFELM
TAF
KELM 011128Z 0112/0212 00000KT 4SM BR SCT008 OVC015
      TEMPO 0112/0114 2SM BR OVC008
     FM011400 11005KT P6SM OVC025
     FM011600 13005KT P6SM BKN045
     FM020000 00000KT P6SM SCT035
     FM020500 00000KT 2SM BR SCT002
     FM020700 00000KT 1/2SM FG OVC002=


U.S. Dept. of Commerce
NOAA National Weather Service
1325 East West Highway
Silver Spring, MD 20910
E-mail: w-nws.webmaster@noaa.gov
Page last modified: May 16, 2007
NATIONAL WEATHER SERVICE: for Safety, for Work, for Fun - FOR LIFE